Hourly Weather Suharevichi Bolshie

Today, 22 January, Friday

Time Temperature Precipitation Wind Pressure Humidity
00:00 -1°C° 0 mm 3 mps 742 mmHg 92%
01:00 -1°C° 0 mm 3 mps 742 mmHg 92%
02:00 -2°C° 0 mm 3 mps 741 mmHg 92%
03:00 -2°C° 0 mm 3 mps 741 mmHg 92%
04:00 -2°C° 0 mm 3 mps 741 mmHg 92%
05:00 -2°C° 0 mm 3 mps 740 mmHg 93%
06:00 -2°C° 0 mm 3 mps 740 mmHg 93%
07:00 -2°C° 0 mm 3 mps 740 mmHg 93%
08:00 -2°C° 0 mm 3 mps 740 mmHg 93%
09:00 -1°C° 0 mm 3 mps 740 mmHg 94%
10:00 0°C° 0 mm 3 mps 740 mmHg 96%
11:00 0°C° 0 mm 4 mps 739 mmHg 97%
12:00 0°C° 0 mm 4 mps 739 mmHg 98%
13:00 0°C° 0 mm 4 mps 738 mmHg 98%
14:00 +1°C° 0 mm 5 mps 737 mmHg 99%
15:00 +1°C° 0 mm 5 mps 737 mmHg 96%
16:00 +1°C° 0 mm 5 mps 737 mmHg 94%
17:00 +1°C° 0 mm 6 mps 736 mmHg 92%
18:00 +1°C° 0 mm 6 mps 737 mmHg 91%
19:00 +1°C° 0 mm 6 mps 737 mmHg 90%
20:00 +1°C° 0 mm 6 mps 737 mmHg 90%
21:00 +1°C° 0 mm 5 mps 737 mmHg 90%
22:00 0°C° 0 mm 5 mps 737 mmHg 91%
23:00 0°C° 0 mm 4 mps 737 mmHg 91%

Tomorrow, 23 January, Saturday

Time Temperature Precipitation Wind Pressure Humidity
00:00 0°C° 0 mm 4 mps 737 mmHg 93%
01:00 +1°C° 0 mm 3 mps 737 mmHg 95%
02:00 +1°C° 0 mm 3 mps 737 mmHg 96%
03:00 +1°C° 0 mm 3 mps 738 mmHg 96%
04:00 +1°C° 0 mm 3 mps 738 mmHg 97%
05:00 +1°C° 0 mm 3 mps 738 mmHg 97%
06:00 +1°C° 0 mm 3 mps 738 mmHg 96%
07:00 0°C° 0 mm 3 mps 738 mmHg 95%
08:00 0°C° 0 mm 3 mps 738 mmHg 95%
09:00 +1°C° 0 mm 3 mps 738 mmHg 96%
10:00 0°C° 0 mm 4 mps 737 mmHg 97%
11:00 0°C° 0 mm 4 mps 737 mmHg 98%
12:00 +1°C° 0 mm 4 mps 737 mmHg 97%
13:00 +1°C° 0 mm 4 mps 737 mmHg 97%
14:00 +1°C° 0 mm 4 mps 737 mmHg 97%
15:00 +2°C° 0 mm 5 mps 736 mmHg 95%
16:00 +2°C° 0 mm 5 mps 736 mmHg 94%
17:00 +2°C° 0 mm 5 mps 736 mmHg 92%
18:00 +1°C° 0 mm 5 mps 736 mmHg 92%
19:00 +1°C° 0 mm 5 mps 736 mmHg 91%
20:00 +1°C° 0 mm 5 mps 736 mmHg 90%
21:00 +1°C° 0 mm 5 mps 736 mmHg 89%
22:00 +1°C° 0 mm 5 mps 736 mmHg 89%
23:00 +1°C° 0 mm 4 mps 736 mmHg 88%

Day after tomorrow, 24 January, Sunday

Time Temperature Precipitation Wind Pressure Humidity
00:00 +1°C° 0 mm 4 mps 735 mmHg 89%
01:00 +1°C° 0 mm 4 mps 735 mmHg 89%
02:00 +2°C° 0 mm 3 mps 735 mmHg 90%
03:00 +2°C° 0 mm 3 mps 735 mmHg 91%
04:00 +2°C° 0 mm 2 mps 735 mmHg 92%
05:00 +2°C° 0 mm 2 mps 735 mmHg 93%
06:00 +2°C° 0 mm 2 mps 735 mmHg 94%
07:00 +2°C° 0 mm 2 mps 735 mmHg 94%
08:00 +2°C° 0 mm 1 mps 735 mmHg 94%
09:00 +2°C° 0.3 mm 1 mps 734 mmHg 95%
10:00 +2°C° 0.3 mm 1 mps 734 mmHg 96%
11:00 +2°C° 0.3 mm 1 mps 734 mmHg 96%
12:00 +2°C° 0.6 mm 1 mps 734 mmHg 97%
13:00 +1°C° 0.6 mm 2 mps 734 mmHg 97%
14:00 +1°C° 0.6 mm 2 mps 733 mmHg 97%
15:00 -1°C° 0.4 mm 2 mps 733 mmHg 97%
16:00 -1°C° 0.4 mm 2 mps 733 mmHg 97%
17:00 -1°C° 0.4 mm 3 mps 733 mmHg 97%
18:00 -1°C° 0.3 mm 3 mps 733 mmHg 97%
19:00 -1°C° 0.3 mm 3 mps 733 mmHg 97%
20:00 -2°C° 0.3 mm 4 mps 734 mmHg 97%
21:00 -2°C° 0.2 mm 4 mps 734 mmHg 97%
22:00 -2°C° 0.2 mm 4 mps 734 mmHg 97%
23:00 -2°C° 0.2 mm 4 mps 735 mmHg 97%

25 January, Monday

Time Temperature Precipitation Wind Pressure Humidity
00:00 -2°C° 0 mm 4 mps 735 mmHg 96%
01:00 -2°C° 0 mm 4 mps 736 mmHg 96%
02:00 -1°C° 0 mm 3 mps 736 mmHg 96%
03:00 -1°C° 0 mm 3 mps 736 mmHg 95%
04:00 -1°C° 0 mm 3 mps 737 mmHg 95%
05:00 -1°C° 0 mm 3 mps 737 mmHg 94%
06:00 -1°C° 0 mm 3 mps 737 mmHg 93%
07:00 -1°C° 0 mm 2 mps 738 mmHg 92%
08:00 -1°C° 0 mm 2 mps 738 mmHg 91%
09:00 -1°C° 0 mm 2 mps 738 mmHg 90%
10:00 -1°C° 0 mm 2 mps 738 mmHg 89%
11:00 -1°C° 0 mm 2 mps 739 mmHg 89%
12:00 -1°C° 0 mm 2 mps 739 mmHg 88%
13:00 -1°C° 0 mm 2 mps 739 mmHg 88%
14:00 -1°C° 0 mm 2 mps 739 mmHg 87%
15:00 -1°C° 0 mm 2 mps 739 mmHg 88%
16:00 -1°C° 0 mm 2 mps 739 mmHg 88%
17:00 -1°C° 0 mm 2 mps 739 mmHg 89%
18:00 -1°C° 0 mm 3 mps 739 mmHg 89%
19:00 -2°C° 0 mm 4 mps 739 mmHg 89%
20:00 -2°C° 0 mm 5 mps 739 mmHg 89%
21:00 -2°C° 0.1 mm 5 mps 738 mmHg 89%
22:00 -3°C° 0.1 mm 6 mps 738 mmHg 89%
23:00 -3°C° 0.1 mm 7 mps 737 mmHg 89%

26 January, Tuesday

Time Temperature Precipitation Wind Pressure Humidity
00:00 -4°C° 0.5 mm 8 mps 737 mmHg 90%
01:00 -5°C° 0.5 mm 8 mps 737 mmHg 90%
02:00 -5°C° 0.5 mm 9 mps 736 mmHg 91%
03:00 -5°C° 0.7 mm 9 mps 736 mmHg 90%
04:00 -5°C° 0.7 mm 9 mps 735 mmHg 90%
05:00 -5°C° 0.7 mm 10 mps 735 mmHg 90%
06:00 -5°C° 0.6 mm 10 mps 735 mmHg 90%
07:00 -5°C° 0.6 mm 10 mps 735 mmHg 90%
08:00 -5°C° 0.6 mm 10 mps 735 mmHg 90%
09:00 -5°C° 0.7 mm 10 mps 735 mmHg 91%
10:00 -5°C° 0.7 mm 10 mps 735 mmHg 92%
11:00 -5°C° 0.7 mm 10 mps 735 mmHg 93%
12:00 -5°C° 0.7 mm 10 mps 735 mmHg 92%
13:00 -4°C° 0.7 mm 11 mps 735 mmHg 92%
14:00 -4°C° 0.7 mm 11 mps 736 mmHg 92%
15:00 -4°C° 0.5 mm 11 mps 736 mmHg 92%
16:00 -4°C° 0.5 mm 10 mps 737 mmHg 92%
17:00 -5°C° 0.5 mm 10 mps 737 mmHg 92%
18:00 -5°C° 0.3 mm 10 mps 737 mmHg 92%
19:00 -5°C° 0.3 mm 9 mps 738 mmHg 91%
20:00 -5°C° 0.3 mm 9 mps 738 mmHg 91%
21:00 -5°C° 0.3 mm 9 mps 738 mmHg 91%
22:00 -4°C° 0.3 mm 8 mps 739 mmHg 92%
23:00 -4°C° 0.3 mm 8 mps 739 mmHg 92%

27 January, Wednesday

Time Temperature Precipitation Wind Pressure Humidity
00:00 -4°C° 0.2 mm 8 mps 739 mmHg 92%
01:00 -4°C° 0.2 mm 8 mps 739 mmHg 92%
02:00 -4°C° 0.2 mm 8 mps 739 mmHg 92%
03:00 -4°C° 0.1 mm 8 mps 739 mmHg 92%
04:00 -5°C° 0.1 mm 8 mps 740 mmHg 92%
05:00 -5°C° 0.1 mm 8 mps 740 mmHg 92%
06:00 -5°C° 0.1 mm 8 mps 740 mmHg 91%
07:00 -4°C° 0.1 mm 7 mps 740 mmHg 90%
08:00 -4°C° 0.1 mm 7 mps 741 mmHg 88%
09:00 -4°C° 0 mm 7 mps 741 mmHg 88%
10:00 -4°C° 0 mm 7 mps 741 mmHg 87%
11:00 -4°C° 0 mm 7 mps 742 mmHg 86%
12:00 -4°C° 0 mm 6 mps 742 mmHg 85%
13:00 -4°C° 0 mm 6 mps 742 mmHg 84%
14:00 -3°C° 0 mm 6 mps 742 mmHg 83%
15:00 -2°C° 0 mm 5 mps 742 mmHg 85%
16:00 -2°C° 0 mm 5 mps 743 mmHg 86%
17:00 -2°C° 0 mm 5 mps 743 mmHg 88%
18:00 -3°C° 0 mm 4 mps 743 mmHg 89%
19:00 -3°C° 0 mm 4 mps 744 mmHg 90%
20:00 -3°C° 0 mm 4 mps 744 mmHg 91%
21:00 -2°C° 0 mm 3 mps 744 mmHg 91%
22:00 -2°C° 0 mm 3 mps 744 mmHg 92%
23:00 -2°C° 0 mm 3 mps 745 mmHg 92%
Show more